Banff, Alberta

1:59 AM MDT on June 29, 2017 (GMT -0600)
Banff

Weather History for CWZG - November, 2013

Change the Weather History Date:

Wednesday, November 6, 2013

  Actual Average Record
Temperature  
Mean Temperature 20 °F -  
Max Temperature 31 °F - - ()
Min Temperature 9 °F - - ()
Degree Days  
Heating Degree Days 45    
Moisture  
Dew Point 17 °F    
Average Humidity 80    
Maximum Humidity 92    
Minimum Humidity 55    
Precipitation  
Precipitation 0.00 in - - ()
Sea Level Pressure  
Sea Level Pressure 30.32 in    
Wind  
Wind Speed 4 mph ()    
Max Wind Speed 10 mph    
Max Gust Speed 18 mph    
T = Trace of Precipitation, MM = Missing Value Source: Averaged Metar Reports

Daily Weather History Graph

Daily Weather History Graph

Search for Another Location

Airport or City:

Trip Planner

Search our weather history database for the weather conditions in past years. The results will help you decide how hot, cold, wet, or windy it might be!

Date:

Astronomy

Nov. 06, 2013 Rise Set
Actual Time 7:44 AM MST 5:06 PM MST
Civil Twilight 7:08 AM MST 5:42 PM MST
Nautical Twilight 6:29 AM MST 6:21 PM MST
Astronomical Twilight 5:50 AM MST 7:00 PM MST
Moon 11:13 AM MST (11/6) 8:06 PM MST (11/6)
Length of Visible Light 10h 33m
Length of Day
9h 22m
Waxing Crescent, 14% of the Moon is Illuminated
Nov 6
Waxing Crescent
Nov 9
First Quarter
Nov 17
Full
Nov 25
Last Quarter
Dec 2
New

Hourly Weather History & Observations

Time (MST) Temp. Windchill Dew Point Humidity Pressure Visibility Wind Dir Wind Speed Gust Speed Precip Events Conditions
12:00 AM 20.5 °F 15.6 °F 18.3 °F 91% 30.16 in - WSW 3.5 mph - N/A   Unknown
1:00 AM 19.6 °F 13.0 °F 16.9 °F 89% 30.18 in - WSW 4.6 mph - N/A   Unknown
2:00 AM 18.7 °F 13.5 °F 16.0 °F 89% 30.19 in - WSW 3.5 mph - N/A   Unknown
3:00 AM 18.5 °F 9.3 °F 15.6 °F 89% 30.22 in - SW 6.9 mph - N/A   Unknown
4:00 AM 11.5 °F - 8.4 °F 87% 30.25 in - NE 2.3 mph - N/A   Unknown
5:00 AM 11.1 °F 4.9 °F 8.6 °F 90% 30.29 in - ENE 3.5 mph - N/A   Unknown
6:00 AM 9.7 °F - 7.9 °F 92% 30.31 in - NNE 2.3 mph - N/A   Unknown
7:00 AM 16.2 °F 6.5 °F 14.2 °F 92% 30.30 in - WSW 6.9 mph - N/A   Unknown
8:00 AM 13.8 °F - 11.8 °F 92% 30.32 in - West 1.2 mph - N/A   Unknown
9:00 AM 16.2 °F 7.6 °F 13.3 °F 88% 30.34 in - SW 5.8 mph - N/A   Unknown
10:00 AM 19.0 °F 12.3 °F 13.1 °F 78% 30.34 in - SW 4.6 mph - N/A   Unknown
11:00 AM 23.4 °F 13.5 °F 16.7 °F 76% 30.32 in - SSW 9.2 mph - N/A   Unknown
12:00 PM 26.4 °F 18.0 °F 18.1 °F 71% 30.32 in - WSW 8.1 mph - N/A   Unknown
1:00 PM 31.6 °F 23.1 °F 17.2 °F 55% 30.31 in - WSW 10.4 mph 18.4 mph N/A   Unknown
2:00 PM 31.1 °F 25.4 °F 20.3 °F 64% 30.32 in - WSW 5.8 mph - N/A   Unknown
3:00 PM 31.6 °F 27.0 °F 20.8 °F 64% 30.35 in - WSW 4.6 mph - N/A   Unknown
4:00 PM 31.6 °F 26.0 °F 20.5 °F 63% 30.35 in - WSW 5.8 mph - N/A   Unknown
5:00 PM 29.1 °F 25.4 °F 20.5 °F 70% 30.38 in - West 3.5 mph - N/A   Unknown
6:00 PM 28.8 °F 22.6 °F 20.8 °F 72% 30.37 in - WSW 5.8 mph - N/A   Unknown
7:00 PM 27.5 °F 19.3 °F 20.3 °F 74% 30.39 in - WSW 8.1 mph - N/A   Unknown
8:00 PM 25.7 °F 16.4 °F 20.3 °F 80% 30.39 in - SW 9.2 mph - N/A   Unknown
9:00 PM 24.1 °F 14.4 °F 19.9 °F 84% 30.39 in - SW 9.2 mph - N/A   Unknown
10:00 PM 22.8 °F 16.7 °F 19.0 °F 85% 30.39 in - SW 4.6 mph - N/A   Unknown
11:00 PM 19.9 °F 14.9 °F 17.6 °F 91% 30.39 in - WSW 3.5 mph - N/A   Unknown